This is the latest recevied weather packets stored in our database for station/object KE8WAY. If no packets are shown the sender has not sent any weather packets the latest 10 day(s).
| Time | Temp. | Humidity | Pressure | Rain* | Wind** | Luminosity | Snow |
|---|---|---|---|---|---|---|---|
| 1777092113 | 14.44° C | 92% | 1006.8 hPa | 1.27 mm | - | 0 W/m² | - |
| 1777091810 | 14.44° C | 92% | 1007 hPa | 3.05 mm | - | 0 W/m² | - |
| 1777091505 | 13.89° C | 92% | 1006.9 hPa | 3.05 mm | - | 0 W/m² | - |
| 1777091199 | 13.89° C | 92% | 1006.9 hPa | 1.27 mm | - | 0 W/m² | - |
| 1777090896 | 13.89° C | 92% | 1006.8 hPa | 1.78 mm | - | 0 W/m² | - |
| 1777090593 | 13.89° C | 92% | 1006.7 hPa | 1.78 mm | - | 0 W/m² | - |
| 1777090289 | 13.89° C | 92% | 1006.7 hPa | 0 mm | - | 0 W/m² | - |
| 1777089986 | 13.33° C | 92% | 1006.7 hPa | 0 mm | - | 0 W/m² | - |
| 1777089680 | 13.33° C | 92% | 1006.7 hPa | 0 mm | - | 0 W/m² | - |
| 1777089370 | 13.33° C | 92% | 1006.7 hPa | 0 mm | - | 0 W/m² | - |
| 1777089066 | 13.33° C | 92% | 1006.5 hPa | 0 mm | - | 0 W/m² | - |
| 1777088759 | 13.33° C | 92% | 1006.9 hPa | 0 mm | - | 0 W/m² | - |
| 1777088456 | 13.33° C | 92% | 1006.7 hPa | 0 mm | - | 0 W/m² | - |
| 1777088150 | 13.33° C | 92% | 1006.7 hPa | 0 mm | - | 0 W/m² | - |
| 1777087845 | 13.33° C | 92% | 1006.6 hPa | 1.78 mm | - | 0 W/m² | - |
| 1777087539 | 13.33° C | 92% | 1006.9 hPa | 1.78 mm | - | 0 W/m² | - |
| 1777087233 | 13.33° C | 92% | 1006.7 hPa | 0 mm | - | 0 W/m² | - |
| 1777086928 | 13.33° C | 92% | 1006.9 hPa | 0 mm | - | 0 W/m² | - |
| 1777086624 | 13.33° C | 92% | 1006.6 hPa | 0 mm | - | 0 W/m² | - |
| 1777086320 | 13.33° C | 92% | 1006.8 hPa | 0 mm | - | 0 W/m² | - |
| 1777086016 | 13.33° C | 92% | 1007 hPa | 0 mm | - | 0 W/m² | - |
| 1777085713 | 13.33° C | 92% | 1006.7 hPa | 0 mm | - | 0 W/m² | - |
| 1777085408 | 13.33° C | 92% | 1006.8 hPa | 0 mm | - | 0 W/m² | - |
| 1777085105 | 13.33° C | 92% | 1006.9 hPa | 0 mm | - | 0 W/m² | - |
| 1777084800 | 13.33° C | 92% | 1006.8 hPa | 0 mm | - | 0 W/m² | - |
* Rain latest hour (hover to see other rain measurements)
** Current wind speed in m/s (hover to see current wind gust speed)